You are listening to:
KSWF Tower - Newburgh, New York, United States

KSWF 241745Z 31018G28KT 20SM SKC M02/M15 A3009

If stream doesn't start automatically press the play button
If stream stops then reload player then press play